www.pogodaiklimat.ru

Погода и климат >> Архив погоды >> Французская Гвиана >> Saint-Laurent-du-Maroni


ПОГОДА в Saint-Laurent-du-Maroni

  • Прогноз погоды в Saint-Laurent-du-Maroni
  • Монитор погоды в Saint-Laurent-du-Maroni
  • Климат города

АРХИВ ПОГОДЫ в Saint-Laurent-du-Maroni

Время (UTC), дата Ветер
(напр.,м/с)
 
Видим.   Явления Облачность Т
(С)
Тd
(С)
f
(%)
Тe
(С)
Тes
(С)
Комфортность P
(гПа)
Po
(гПа)
Тmin
(С)
Tmax
(С)
R
(мм)
R24
(мм)
S
(см)
00 12.08 ЮВ 2 н/о н/о +24.0 +23.3 96 +32 +32 очень
душно
1014.5 1013.9 +22.8 +32.4
03 12.08 ЮВ 2 н/о н/о +23.4 +22.9 97 +33 +33 очень
душно
1015.6 1015.0 +22.8 +32.4
06 12.08 В 1 н/о н/о +22.9 +22.2 96 +31 +31 очень
душно
1013.8 1013.2 +22.8 +32.4
09 12.08 Ю 1 н/о н/о +22.4 +21.7 96 +30 +30 очень
душно
1013.7 1013.1 +22.4 +32.4
12 12.08 ЮВ 3 н/о н/о +27.5 +24.1 82 +38 +38 очень
душно
1015.4 1014.8 +22.2 +32.4
15 12.08 Ю 2 н/о н/о +30.7 +24.6 70 +43 +43 опасность
перегрева
1015.0 1014.4 +22.2 +32.4
18 12.08 ЮЗ 3 н/о н/о +33.2 +24.7 61 +46 +46 опасность
перегрева
1011.6 1011.0 +22.2 +33.5
21 12.08 штиль 0 н/о н/о +26.3 +24.7 91 +37 +37 очень
душно
1011.6 1011.0 +22.2 +33.5 5
00 13.08 ЮЗ 1 н/о н/о +24.7 +24.0 96 +34 +34 очень
душно
1013.3 1012.7 +22.2 +33.5
03 13.08 штиль 0 н/о н/о +23.9 +23.2 96 +32 +32 очень
душно
1013.7 1013.1 +22.2 +33.5
06 13.08 Ю 1 н/о н/о +23.2 +22.5 96 +32 +32 очень
душно
1012.6 1012.0 +22.2 +33.5
09 13.08 Ю 1 н/о н/о +22.3 +21.8 97 +30 +30 очень
душно
1012.6 1012.0 +22.2 +33.5 0.2
12 13.08 ЮВ 3 н/о н/о +27.3 +24.0 82 +38 +38 очень
душно
1014.1 1013.5 +22.2 +33.5
15 13.08 ЮВ 3 н/о н/о +30.5 +23.2 65 +41 +41 опасность
перегрева
1013.3 1012.7 +22.2 +33.5
18 13.08 ЮВ 2 н/о н/о +32.5 +22.3 55 +42 +42 опасность
перегрева
1010.5 1009.9 +22.2 +33.3
21 13.08 СВ 3 н/о н/о +29.8 +23.0 67 +40 +40 очень
душно
1009.8 1009.2 +22.2 +33.9
00 14.08 С 1 н/о н/о +24.9 +22.4 86 +33 +33 очень
душно
1011.4 1010.8 +22.2 +33.9
03 14.08 штиль 0 н/о н/о +23.3 +22.1 93 +32 +32 очень
душно
1012.1 1011.5 +22.2 +33.9
06 14.08 Ю 1 н/о н/о +22.8 +22.3 97 +31 +31 очень
душно
1011.5 1010.9 +22.2 +33.9
09 14.08 Ю 1 н/о н/о +22.6 +21.9 96 +30 +30 очень
душно
1012.0 1011.4 +22.2 +33.9
12 14.08 ЮВ 2 н/о н/о +25.9 +23.2 85 +35 +35 очень
душно
1013.6 1013.0 +22.5 +33.9
15 14.08 СЗ 2 н/о н/о +31.9 +24.5 65 +45 +45 опасность
перегрева
1013.0 1012.4 +22.5 +33.9
18 14.08 С 2 н/о н/о +32.6 +23.8 60 +44 +44 опасность
перегрева
1010.5 1009.9 +22.5 +33.9
21 14.08 СВ 3 н/о н/о +28.5 +23.9 76 +39 +39 очень
душно
1010.6 1010.0 +22.5 +33.7 0.2
00 15.08 СВ 1 н/о н/о +24.9 +23.5 92 +34 +34 очень
душно
1011.8 1011.2 +22.5 +33.7
03 15.08 В 1 н/о н/о +24.0 +23.3 96 +32 +32 очень
душно
1013.0 1012.4 +22.5 +33.7
06 15.08 штиль 0 н/о н/о +23.4 +22.7 96 +33 +33 очень
душно
1011.9 1011.3 +22.5 +33.7
09 15.08 Ю 1 н/о н/о +23.0 +22.3 96 +31 +31 очень
душно
1012.6 1012.0 +22.6 +33.7
12 15.08 ЮВ 1 н/о н/о +26.5 +24.3 88 +37 +37 очень
душно
1013.8 1013.2 +23.0 +33.7
15 15.08 В 3 н/о н/о +31.2 +24.6 68 +44 +44 опасность
перегрева
1014.1 1013.5 +23.0 +33.7
18 15.08 В 2 н/о н/о +34.2 +22.3 50 +43 +43 опасность
перегрева
1011.5 1010.9 +23.0 +34.2
21 15.08 СВ 1 н/о н/о +25.8 +23.5 87 +35 +35 очень
душно
1012.4 1011.8 +23.0 +34.8 7
00 16.08 штиль 0 н/о н/о +24.6 +23.2 92 +33 +33 очень
душно
1014.2 1013.6 +23.0 +34.8
03 16.08 штиль 0 н/о н/о +23.6 +22.9 96 +31 +31 очень
душно
1014.8 1014.2 +23.0 +34.8
06 16.08 штиль 0 н/о н/о +22.6 +21.9 96 +30 +30 очень
душно
1014.0 1013.4 +22.6 +34.8
09 16.08 Ю 1 н/о н/о +22.4 +21.9 97 +30 +30 очень
душно
1015.0 1014.4 +22.4 +34.8
12 16.08 ЮВ 1 н/о н/о +27.1 +24.2 84 +38 +38 очень
душно
1016.4 1015.8 +22.2 +34.8
15 16.08 ЮВ 2 н/о н/о +31.7 +23.3 61 +42 +42 опасность
перегрева
1016.0 1015.4 +22.2 +34.8
18 16.08 СЗ 2 н/о н/о +31.0 +22.9 62 +41 +41 опасность
перегрева
1013.8 1013.2 +22.2 +34.8 5
21 16.08 В 1 н/о н/о +26.3 +22.8 81 +35 +35 очень
душно
1013.5 1012.9 +22.2 +33.8
00 17.08 штиль 0 н/о н/о +23.7 +22.1 91 +31 +31 очень
душно
1015.4 1014.8 +22.2 +33.8
03 17.08 В 1 н/о н/о +23.9 +22.9 94 +32 +32 очень
душно
1016.8 1016.2 +22.2 +33.8
06 17.08 ЮВ 1 н/о н/о +23.8 +23.1 96 +32 +32 очень
душно
1015.2 1014.6 +22.2 +33.8
09 17.08 Ю 1 н/о н/о +22.6 +21.9 96 +30 +30 очень
душно
1015.8 1015.2 +22.2 +33.8
12 17.08 ЮВ 3 н/о н/о +27.9 +23.3 76 +38 +38 очень
душно
1016.6 1016.0 +22.2 +33.8
15 17.08 ЮВ 3 н/о н/о +31.1 +23.0 62 +41 +41 опасность
перегрева
1016.1 1015.5 +22.2 +33.8
18 17.08 ЮВ 4 н/о н/о +33.8 +20.9 47 +41 +41 опасность
перегрева
1013.5 1012.9 +22.2 +33.8
21 17.08 СВ 2 н/о н/о +31.5 +22.8 60 +41 +41 опасность
перегрева
1012.8 1012.2 +22.2 +33.9
00 18.08 В 2 н/о н/о +25.9 +23.0 84 +35 +35 очень
душно
1014.6 1014.0 +22.2 +33.9
03 18.08 ЮВ 1 н/о н/о +24.5 +22.9 91 +32 +32 очень
душно
1016.2 1015.6 +22.2 +33.9
06 18.08 штиль 0 н/о н/о +23.1 +22.4 96 +32 +32 очень
душно
1014.9 1014.3 +22.2 +33.9
09 18.08 ЮВ 1 н/о н/о +22.8 +22.3 97 +31 +31 очень
душно
1015.2 1014.6 +22.2 +33.9
12 18.08 ЮВ 2 н/о н/о +26.2 +24.1 88 +36 +36 очень
душно
1016.6 1016.0 +22.3 +33.9
15 18.08 В 3 н/о н/о +31.6 +22.9 60 +42 +42 опасность
перегрева
1015.3 1014.7 +22.3 +33.9
18 18.08 С 3 н/о н/о +32.7 +24.2 61 +45 +45 опасность
перегрева
1012.0 1011.4 +22.3 +33.9
21 18.08 В 2 н/о н/о +24.6 +22.7 89 +32 +32 очень
душно
1012.7 1012.1 +22.3 +33.7 10

 

Местоположение метеостанции Saint-Laurent-du-Maroni (Французская Гвиана): широта 5.50 долгота -54.03 высота над уровнем моря 9 м.

В архиве по умолчанию представлена погода в Saint-Laurent-du-Maroni за последнюю неделю. Архивные данные за месяц целиком и за предыдущие месяцы, начиная с января 2011 года, Вы можете получить, выбрав интересующий диапазон дат из раскрывающегося списка и нажав кнопку "Ввод!".


*Определитесь, кто Вы:
робот инопланетянин человек

Внимание! Время в таблицах - всемирное. Для получения местного времени необходимо прибавить поправку, которая в Saint-Laurent-du-Maroni равна -3 ч.

Смотрите также архив погоды в соседних городах и на ближайших метеорологических станциях:

Погода в Zanderij (Суринам) (130 км)
Погода в Paramaribo (Суринам) (132 км)
Погода в Stoelmans Island (Суринам) (135 км)
Погода в Cayenne (Французская Гвиана) (199 км)
Погода в Maripasoula (Французская Гвиана) (208 км)
Погода в Oiapoque (Бразилия) (305 км)
Погода в Saint Georges de L`Oyapock (Французская Гвиана) (306 км)
Погода в Nickerie (Суринам) (336 км)
Погода в Kaieteur Falls (Гайана) (371 км)
Погода в New Amsterdam (Гайана) (395 км)

Пояснения к столбцам:

Ветер - указаны скорость ветра в м/с - средняя за 10 мин, порывы в срок и между сроками (в фигурных скобках) и направление, откуда дует ветер: С - северный, СВ - северо-восточный, В - восточный, ЮВ - юго-восточный, Ю - южный, ЮЗ - юго-западный, З - западный, СЗ - северо-западный.
Видимость - горизонтальная дальность видимости в метрах или километрах. При видимости от 1 до 10 км при отсутствии осадков обычно наблюдается дымка, при ухудшении видимости до 1 км и менее - туман. В сухую погоду видимость может ухудшаться дымом, пылью или мглою.
Явления - указаны атмосферные явления, наблюдавшиеся в срок или в последний час перед сроком; фигурными скобками обозначены явления, наблюдавшиеся между сроками (за 1-3 часа до срока); квадратными скобками обозначены град или гололедные отложения с указанием их диаметра в мм.
Облачность - указаны через наклонную черту общая и нижняя облачность в баллах и высота нижней границы облаков в метрах; квадратными скобками обозначены формы облаков: Ci - перистые, Cs - перисто-слоистые, Cc - перисто-кучевые, Ac - высококучевые, As - высокослоистые, Sc - слоисто-кучевые, Ns - слоисто-дождевые, Cu - кучевые, Cb - кучево-дождевые. Подробнее классификацию облаков см. в Атласе облаков (PDF).
T - Температура воздуха - температура, измеренная на высоте 2 м над землей.
Td - Температура точки росы - температура, при понижении до которой содержащийся в воздухе водяной пар достигнет насыщения.
f - Относительная влажность воздуха - влажноcть воздуха, измеренная на высоте 2 м над землей.
Te - Эффективная температура - температура, которую ощущает одетый по сезону человек в тени. Характеристика душности погоды. При расчете учитывается влияние влажности воздуха и скорости ветра на теплоощущения человека.
Tes - Эффективная температура на солнце - температура, которую ощущает человек, с поправкой на солнечный нагрев. Характеристика знойности погоды. Зависит от высоты солнца над горизонтом, облачности и скорости ветра. Ночью, в пасмурную погоду, а также при ветре 12 м/с и более поправка равна нулю.
P - Атмосферное давление - приведенное к уровню моря атмосферное давление.
Po - Атмосферное давление - измеренное на уровне метеостанции атмосферное давление.
Tmin - Минимальная температура - минимум температуры воздуха на высоте 2 м над землей.
Tmax - Максимальная температура - максимум температуры воздуха на высоте 2 м над землей.
R - Количество осадков - Количество выпавших осадков за период времени, мм. При наведении курсора мыши на число - период времени, за который выпало указанное количество осадков.
R24 - Количество осадков - Количество выпавших осадков за 24 часа, мм.
S - Снежный покров - Высота снежного покрова, см. При наведении курсора мыши на число - состояние снежного покрова и степень покрытия местности в баллах.